TimeMDT,TemperatureF,Dew PointF,Humidity,Sea Level PressureIn,VisibilityMPH,Wind Direction,Wind SpeedMPH,Gust SpeedMPH,PrecipitationIn,Events,Conditions,WindDirDegrees,DateUTC
12:51 AM,64.0,46.9,54,29.76,10.0,Calm,Calm,-,N/A,,Clear,0,2013-06-13 06:51:00
1:51 AM,64.0,48.0,56,29.75,10.0,SSE,3.5,-,N/A,,Clear,160,2013-06-13 07:51:00
2:51 AM,62.1,48.0,60,29.75,10.0,WSW,4.6,-,N/A,,Clear,240,2013-06-13 08:51:00
3:51 AM,55.0,48.9,80,29.76,10.0,Calm,Calm,-,N/A,,Clear,0,2013-06-13 09:51:00
4:51 AM,55.9,48.9,77,29.77,10.0,WSW,3.5,-,N/A,,Clear,250,2013-06-13 10:51:00
5:51 AM,55.9,46.9,72,29.75,10.0,Variable,3.5,-,N/A,,Clear,0,2013-06-13 11:51:00
6:51 AM,57.9,48.0,70,29.75,10.0,Variable,4.6,-,N/A,,Scattered Clouds,0,2013-06-13 12:51:00
7:51 AM,61.0,51.1,70,29.76,10.0,NNW,4.6,-,N/A,,Clear,340,2013-06-13 13:51:00
8:51 AM,63.0,50.0,63,29.76,10.0,North,5.8,-,N/A,,Clear,360,2013-06-13 14:51:00
9:51 AM,71.1,48.0,44,29.73,10.0,Variable,3.5,-,N/A,,Clear,0,2013-06-13 15:51:00
10:51 AM,73.0,50.0,44,29.73,10.0,SW,4.6,-,N/A,,Clear,230,2013-06-13 16:51:00
11:51 AM,79.0,48.0,34,29.72,10.0,NNE,3.5,-,N/A,,Clear,20,2013-06-13 17:51:00
12:51 PM,82.0,41.0,23,29.71,10.0,WSW,8.1,18.4,N/A,,Partly Cloudy,240,2013-06-13 18:51:00
1:51 PM,84.9,37.0,18,29.70,10.0,SSW,15.0,25.3,N/A,,Clear,210,2013-06-13 19:51:00
2:51 PM,87.1,36.0,16,29.68,10.0,WSW,13.8,21.9,N/A,,Clear,250,2013-06-13 20:51:00
3:41 PM,84.2,44.6,25,29.84,10.0,North,13.8,29.9,N/A,,Clear,10,2013-06-13 21:41:00
3:51 PM,84.0,45.0,25,29.68,10.0,North,15.0,23.0,N/A,,Clear,350,2013-06-13 21:51:00
3:56 PM,84.2,44.6,25,29.83,10.0,North,17.3,23.0,N/A,,Clear,10,2013-06-13 21:56:00
4:51 PM,82.9,46.0,27,29.67,10.0,North,20.7,25.3,N/A,,Clear,360,2013-06-13 22:51:00
5:51 PM,75.9,42.1,30,29.73,10.0,North,21.9,31.1,N/A,,Clear,350,2013-06-13 23:51:00
6:51 PM,70.0,39.9,33,29.80,10.0,North,18.4,27.6,N/A,,Partly Cloudy,360,2013-06-14 00:51:00
7:51 PM,64.0,39.0,40,29.91,10.0,North,17.3,35.7,N/A,,Clear,10,2013-06-14 01:51:00
8:51 PM,63.0,37.0,38,29.93,10.0,NNE,25.3,31.1,0.00,,Mostly Cloudy,20,2013-06-14 02:51:00
9:51 PM,60.1,39.0,46,29.89,10.0,WNW,12.7,-,N/A,,Clear,290,2013-06-14 03:51:00
10:51 PM,59.0,41.0,51,29.91,10.0,SSE,8.1,-,N/A,,Mostly Cloudy,160,2013-06-14 04:51:00
11:51 PM,59.0,39.9,49,29.90,10.0,South,3.5,-,N/A,,Clear,190,2013-06-14 05:51:00